Orbital Elements at Epoch 2459200.5 (2020-Dec-17.0) TDB
Reference: JPL 30 (heliocentric ecliptic J2000)
Element | Value | Uncertainty (1-sigma) | Units |
e | .1134509353814834 | 3.8795e-08 | |
a | 3.040655852866186 | 1.6041e-08 | au |
q | 2.695690602185335 | 1.2124e-07 | au |
i | 3.892558518710465 | 3.759e-06 | deg |
node | 93.93002420402567 | 7.2567e-05 | deg |
peri | 142.8599404460425 | 7.5593e-05 | deg |
M | 348.543231770089 | 2.2606e-05 | deg |
tp | 2459262.132382513760 (2021-Feb-16.63238251) | 0.00012174 | TDB |
period | 1936.641927260663 5.30 | 1.5325e-05 4.196e-08 | d yr |
n | .1858887773380038 | 1.471e-09 | deg/d |
Q | 3.385621103547037 | 1.7861e-08 | au |
|
| | Orbit Determination Parameters
Additional Information
|